COSMOS 1275 DEB, 42192

Orbit data source: Space-Track

COSMOS 1275 DEB, 42192 is space debris in LEO originally from a launch on Thu, 04 Jun 1981 UTC launched from the Plesetsk Missile And Space Complex (PKMTR). Debris objects in space refer to the collection of defunct objects orbiting the Earth. Examples of debris include non-operational satellites, rocket bodies, and fragments generated from explosions, collisions, or faulty payload assembly.

Loading next visibility...
Identifier
42192, 1981-053TG
Orbit
LEO
Country
Flag of CISCIS
Related business
Manufacturer
Unknown
Mission
Spacecraft
Bus & Motor
Unknown
Mass
Unknown
Launch date (UTC)
1981-06-04 (45 years ago)
Launch vehicle
Unknown
Launch site
Plesetsk Missile And Space Complex (PKMTR)
Object type
Payload
Rocket body
Debris
Shape & HBR
Unknown shape, 0.1 m
Radar Cross Section
Medium (>0.1 m² and <1 m²)

Expand to show TLE details & history
Last TLE update: 5 days ago

TLE from 5 days ago
0 COSMOS 1275 DEB
1 42192U 81053TG  26215.38092039  .00001570  00000-0  15122-2 0  9991
2 42192  83.0940  92.6650 0128765  54.0977 307.2051 13.75812089634446
Epoch: 2026-08-03T09:08Z
TLE epoch observation values (Epoch: 2026-08-03T09:08:31.521Z)
Latitude
-0.00004°
Longitude
3.56881°
Altitude
925.174 km
Speed
7.418 km/s
True Right ascension
06h 10m 39s
True Declination
0° 00' 00"
Sunlit
Object was in daylight at epoch
Visualization orbit readout
Latitude
Unknown
Longitude
Unknown
Altitude
Unknown
Speed
Unknown
Apparent Right ascension
Unknown
Apparent Declination
Unknown
Sunlit
N/A
Visualization observer readout
Local Sidereal Time
00:46:01
Azimuth
Unknown
Elevation
Unknown
Doppler factor
Unknown
Orbital elements
Apogee altitude
1,070.614 km
Perigee altitude
881.225 km
Semi-major axis
7,354.057 km
Eccentricity
0.01288
Inclination
83.094°
RAAN
92.665°
Arg. of periapsis
54.0977°
True anomaly
306.01841°
Mean anomaly
307.2051°
Eccentric anomaly
306.61291°
Mean motion
3.44154 °/min
Orbital period
104.6 mins
BSTAR
0.0015122
Loading maneuver chart data...
Computing Atmospheric mass density...
Loading historical data...
Loading historical data...
Loading historical data...
Loading historical data...
Loading historical data...
Loading historical data...
Loading historical data...

Documentation

Showing up to 5 results
|